User: anonymous   Login
Location: Young's Pond
(41.2695°N, 72.7766°W)
Time: 01:09:15
(UTC-05:00)
Language:

CZ-4B R/B - Orbit

View from above orbital plane
View from above orbital plane
View from above satellite
View from above satellite

Ground track
Ground track

The orbit data is extracted from the following two-line orbital elements,

1 29093U 06015B   17323.40358154 +.00004739 +00000-0 +10904-3 0  9991
2 29093 097.5093 078.2765 0063406 118.7113 242.0526 15.41033310641322
Epoch (UTC): 19 November 2017 09:41:09
Eccentricity: 0.0063406
inclination: 97.5093°
perigee height: 400 km
apogee height: 486 km
right ascension of ascending node: 78.2765°
argument of perigee: 118.7113°
revolutions per day: 15.41033310
mean anomaly at epoch: 242.0526°
orbit number at epoch: 64132

The dashed part of the orbit path shows where the satellite is in the earth's shadow,  

DLR